Regional Weather Roundup
Issued by NWS Kansas City/Pleasant Hill, MO

Home | Current Version | Previous Version | Graphics & Text | Print | Product List | Glossary Off
Versions: 1 2 3 4 5 6 7 8 9 10 11 12 13 14 15 16 17 18 19 20 21 22 23 24 25 26 27 28 29 30 31 32 33 34 35 36 37 38 39 40 41 42 43 44 45 46 47 48 49 50

000
ASUS43 KEAX 040704
RWREAX

WEATHER ROUNDUP FOR EASTERN KANSAS AND NORTHWEST MISSOURI
NATIONAL WEATHER SERVICE KANSAS CITY/PLEASANT HILL MO
200 AM CDT SAT JUL 04 2015

KSZ040-057-103>105-MOZ028-029-037-043-040800-
...KANSAS CITY METROPOLITAN AREA...

CITY           SKY/WX    TMP DP  RH WIND       PRES   REMARKS
K.C. INTL      CLEAR     68  58  70 E5        29.99F
K.C. DOWNTOWN  LGT RAIN  69  60  73 CALM      29.98F
LEES SUMMIT    PTCLDY    64  60  87 CALM      30.00S
OLATHE - IXD   PTCLDY    66  59  78 NE3       30.00F
OLATHE - OJC   PTCLDY    65  59  81 NE6       29.99S
LAWRENCE       PTCLDY    61  59  93 CALM      29.99F

$$

MOZ001>008-011>017-020>025-030>033-038>040-044>046-053-054-040800-
...NORTHERN AND CENTRAL MISSOURI...

CITY           SKY/WX    TMP DP  RH WIND       PRES   REMARKS
ST. JOSEPH     CLEAR     61  59  93 NW3       29.99F
MOSBY          SUNNY     61  61 100 CALM      29.99S FOG
HARRISONVILLE  PTCLDY    66  61  82 CALM      30.01S
WHITEMAN AFB   CLEAR     63  61  96 CALM      29.97S
CLINTON        CLEAR     64  64 100 NE3       29.98S
SEDALIA        CLEAR     65  62  90 CALM      29.99S
WARSAW         FAIR      63  63 100 CALM      29.99R
CHILLICOTHE      N/A     62  60  93 CALM      30.01R
KIRKSVILLE     CLEAR     58  55  90 CALM      30.00S

$$

MOZ041-047>049-056>058-063>065-088>090-097-040800-
...EASTERN AND SOUTHERN MISSOURI...

CITY           SKY/WX    TMP DP  RH WIND       PRES   REMARKS
ST. LOUIS INTL CLEAR     72  66  81 N5        29.96S HAZE
SPIRIT OF STL  CLEAR     66  65  96 CALM      29.95S FOG
COLUMBIA       CLEAR     66  60  81 NE6       29.97F
JEFFERSON CITY CLEAR     66  61  84 W5        29.96S
MEXICO         CLEAR    N/A N/A N/A CALM      29.98F
ROLLA          CLEAR     63  61  93 N5        29.96S
LEBANON        CLEAR     64  61  88 N3        29.98S
OSAGE BEACH    CLEAR     63  61  94 CALM      29.97S
SPRINGFIELD    CLEAR     68  64  87 CALM      29.97R
JOPLIN         PTCLDY    69  67  93 NE5       29.97S
WEST PLAINS    PTCLDY    67  64  90 N3        29.97R
MALDEN         PTCLDY    72  70  94 CALM      29.91S FOG

$$

IAZ060-094-KSZ022-034>040-054-083-096-NEZ052-066-093-040800-
...KANSAS...SOUTHEAST NEBRASKA AND IOWA...

CITY           SKY/WX    TMP DP  RH WIND       PRES   REMARKS
TOPEKA         PTCLDY    63  61  93 CALM      29.99F FOG
MANHATTAN      PTCLDY    61  59  93 CALM      30.00F
EMPORIA        PTCLDY    65  61  87 N3        29.99F
CHANUTE        PTCLDY    69  65  86 NE3       29.98S
WICHITA        CLEAR     71  63  75 E7        29.98F
OMAHA          CLEAR     63  57  81 CALM      29.99R
LINCOLN        CLEAR     66  59  78 SE3       30.01R HAZE
FALLS CITY     CLEAR     63  58  83 CALM      29.98F
LAMONI         CLEAR     62  56  80 SE3       30.00S
DES MOINES     PTCLDY    64  57  78 CALM      29.98S

$$



USA.gov is the U.S. government's official web portal to all federal, state and local government web resources and services.